Regional Weather Roundup
Issued by NWS

Home | Current Version | Previous Version | Text Only | Print | Product List | Glossary Off
Versions: 1 2 3 4 5 6 7 8 9 10 11 12 13 14 15 16 17 18 19 20 21 22 23 24 25 26 27

000
ASUS45 KBOU 190106
RWRCO

WEATHER ROUNDUP FOR COLORADO
NATIONAL WEATHER SERVICE DENVER/BOULDER CO
700 PM MDT FRI APR 18 2014

NOTE: "FAIR" INDICATES FEW OR NO CLOUDS BELOW 12000 FEET WITH NO
SIGNIFICANT WEATHER AND/OR OBSTRUCTIONS TO VISIBILITY.

COZ001>005-013-030-031-190200-
...NORTHWEST COLORADO...

CITY           SKY/WX    TMP DP  RH WIND       PRES   REMARKS
CRAIG          CLOUDY    61  28  28 SW10      29.94S
HAYDEN         CLOUDY    61  25  25 SW9G18    29.99S
MEEKER         CLOUDY    65  21  18 SW15G22   29.96S
MOUNT WERNER   CLOUDY    46  10  23 W21G29    30.19S
STEAMBOAT SPGS CLOUDY    61  13  15 SW8       29.98S
WALDEN         CLOUDY    54  23  30 SW13      30.03S
$$

COZ006>008-011-190200-
...WEST CENTRAL VALLEYS...

CITY           SKY/WX    TMP DP  RH WIND       PRES   REMARKS
GRAND JUNCTION MOCLDY    71  22  15 NW16      29.88S
MONTROSE       MOCLDY    70  21  15 W9        29.96R
EAGLE          CLOUDY    66  25  20 SW9       29.98F
RIFLE          CLOUDY    69  22  16 SW9       29.92S
DELTA          MOCLDY    75  19  12 W8        29.90F
NUCLA            N/A     70  21  16 SW12G23   30.00S
$$

COZ017>023-064>068-190200-
...SOUTHWEST COLORADO...

CITY           SKY/WX    TMP DP  RH WIND       PRES   REMARKS
DURANGO        CLOUDY    64  20  18 W10       30.03F
CORTEZ         CLOUDY    67  22  18 W22G32    30.00R
PAGOSA SPRINGS CLOUDY    64  13  13 W18       30.09R
TELLURIDE      CLOUDY    54  23  30 S7        30.14S
WOLF CREEK PAS CLOUDY    36  21  55 SW18G46   30.29S
$$

COZ009-010-012-014-032>034-037-058>063-190200-
...CENTRAL COLORADO...

CITY           SKY/WX    TMP DP  RH WIND       PRES   REMARKS
ASPEN          CLOUDY    59  26  28 SE12      30.05F
BUENA VISTA    CLOUDY    59  22  23 W13G21    30.07S
COPPER MTN     CLOUDY    41  23  48 SW8G21    30.28F
BERTHOUD PASS  CLOUDY    32  25  74 W10G20    30.31R WCI  24
COTTONWOOD PAS CLOUDY    54  19  26 W15G23    30.18R
GUNNISON       MOCLDY    59  19  21 W7        30.10S
KREMMLING      CLOUDY    59  19  21 NW6       30.02S
LEADVILLE      CLOUDY    44  25  47 SE7       30.17S
MONARCH PASS   MOCLDY    37  23  56 W18G26    30.38S
SALIDA         CLOUDY    63  22  20 W9        30.12S
SUNLIGHT       CLOUDY    45  25  45 CALM      30.22S
WILKERSON PASS CLOUDY    41  23  48 W8        30.26R
$$

COZ069>075-190200-
...SAN LUIS VALLEY/SANGRE DE CRISTO MOUNTAINS...

CITY           SKY/WX    TMP DP  RH WIND       PRES   REMARKS
ALAMOSA        CLOUDY    64  23  21 SW12      30.04F
LA VETA PASS   CLOUDY    46  21  36 W6        30.20S
SAGUACHE       MOCLDY    63  23  22 N14       30.07R
$$

COZ035-036-038>040-190200-
...NORTHERN COLORADO FRONT RANGE...

CITY           SKY/WX    TMP DP  RH WIND       PRES   REMARKS
DENVER INTL AP CLOUDY    72  26  18 NW20      29.84R
DMNS CITY PARK   N/A     71  24  17 N13       29.85S
AURORA         MOCLDY    68  28  22 N12       29.86R
FRONT RANGE AP NOT AVBL
ERIE MUNI ARPT CLOUDY    72  20  14 W5        29.84F
BOULDER MUN AP CLOUDY    70  32  24 CALM      29.86R
CENTENNIAL     CLOUDY    68  27  21 N12       29.87R
BROOMFIELD     CLOUDY    72  27  18 VRB6      29.88F
FORT COLLINS   CLOUDY    73  28  19 SE12G22   29.85S
LONGMONT       CLOUDY    74  27  17 CALM      29.86S
$$

COZ041-046-047-076>085-087-088-190200-
...PIKES PEAK/PALMER DIVIDE AND SOUTHERN FOOTHILLS...

CITY           SKY/WX    TMP DP  RH WIND       PRES   REMARKS
COLO. SPRINGS  CLOUDY    68  24  19 NW8       29.94R
A. F. ACADEMY  CLOUDY    65  26  22 SW10      29.96R
ELLICOTT       NOT AVBL
FALCON         CLOUDY    65  24  21 SW8       30.00R
FORT CARSON    CLOUDY    68  28  21 S7        29.91S
LIMON          PTCLDY    66  28  24 SE15      29.90S
MONUMENT HILL  CLOUDY    63  23  22 SW17G26   29.97S
TRINIDAD       CLOUDY    70  31  23 S20       29.94S
$$

COZ042>045-048>051-090-091-190200-
...NORTHEAST COLORADO...

CITY           SKY/WX    TMP DP  RH WIND       PRES   REMARKS
GREELEY ARPT   CLOUDY    73  28  19 S15       29.83F
AKRON          MOCLDY    70  33  25 SE20      29.86S
BURLINGTON     PTCLDY    69  35  28 S20       29.90F
WRAY           CLEAR     73  35  24 S14       29.86R
STERLING       MOCLDY    75  34  22 S10       29.81S
HOLYOKE        CLEAR     73  36  25 S15       29.85R
FORT MORGAN    MOCLDY    70  30  23 E9        29.83S
$$

COZ086-089-092>099-190200-
...SOUTHEAST COLORADO...

CITY           SKY/WX    TMP DP  RH WIND       PRES   REMARKS
PUEBLO         CLOUDY    75  28  17 SW8       29.84S
LA JUNTA       MOCLDY    76  28  17 E14       29.84F
LAMAR          PTCLDY    74  37  26 S20       29.84S
SPRINGFIELD      N/A     69  36  29 S24       29.93F
$$



USA.gov is the U.S. government's official web portal to all federal, state and local government web resources and services.